Flag Weather past 2 weeks in Arusha, Tanzania

Now
63 °F

Passing clouds.


Feels Like: 63 °F
Forecast: 61 / 82 °F
Wind: 6 mph from North

Location: Kenyatta Airport

Current Time: Nov 26, 2014 at 5:01:23 AM

Latest Report: Nov 26, 2014 at 4:00 AM


Visibility: N/A

Pressure: 30.09 "Hg

Humidity: 88%

Dew point: 59 °F

Location of ArushaLocation

Historic Weather in Arusha — Graph

°F

Arusha temperature yesterday

Maximum temperature yesterday: 84 °F (at 6:00 PM)
Minimum temperature yesterday: 63 °F (at 3:00 AM)
Average temperature yesterday: 70 °F

Past Weeks' High & Low Weather Summary

 TemperatureHumidityPressure
High84 °F (Nov 25, 6:00 PM)100% (Nov 11, 6:00 AM)30.27 "Hg (Nov 11, 6:00 AM)
Low57 °F (Nov 20, 5:00 AM)42% (Nov 17, 3:00 PM)29.80 "Hg (Nov 25, 6:00 PM)
Average67 °F79%30.14 "Hg
* Reported Nov 11 4:00 AM — Nov 26 4:00 AM, Arusha, Weather by CustomWeather, © 2014

Note: Actual official high and low records may vary slightly from our data, if they occured in-between our weather recording intervals... More about our weather records

Advertising

Arusha weather history for previous 24 hours

 ConditionsComfort  
Time TempWeatherWind HumidityBarometerVisibility
4:00 AM
Nov 26
63 °FPassing clouds.6 mph88%30.09 "HgN/A
3:00 AM64 °FPassing clouds.5 mph88%30.09 "HgN/A
2:00 AM63 °FPassing clouds.6 mph88%30.09 "HgN/A
1:00 AM63 °FPassing clouds.6 mph94%30.12 "HgN/A
12:00 AM64 °FPassing clouds.5 mph88%30.15 "HgN/A
11:00 PM
Nov 25
66 °FPassing clouds.7 mph83%30.15 "HgN/A
10:00 PM66 °FClear.9 mph78%30.15 "Hg10 mi
9:00 PM68 °FClear.10 mph73%29.83 "Hg70 mi
8:00 PM70 °FPassing clouds.12 mph64%30.09 "HgN/A
7:00 PM73 °FPassing clouds.14 mph57%30.07 "HgN/A
6:00 PM84 °FPassing clouds.6 mph70%29.80 "HgN/A
5:00 PM79 °FScattered clouds.17 mph45%30.04 "HgN/A
4:00 PM79 °FScattered clouds.12 mph45%30.04 "HgN/A
3:00 PM79 °FScattered clouds.7 mph45%30.07 "HgN/A
2:00 PM81 °FPartly sunny.8 mph42%30.09 "HgN/A
1:00 PM77 °FPartly sunny.7 mph47%30.12 "HgN/A
12:00 PM75 °FPartly sunny.7 mph57%30.15 "HgN/A
11:00 AM73 °FPartly sunny.9 mph61%30.18 "HgN/A
10:00 AM70 °FPartly sunny.2 mph73%30.18 "HgN/A
9:00 AM68 °FPartly sunny.3 mph78%30.18 "HgN/A
8:00 AM66 °FBroken clouds.3 mph83%30.15 "HgN/A
7:30 AM66 °FBroken clouds.8 mph88%30.15 "HgN/A
6:00 AM64 °FPassing clouds.6 mph94%30.12 "HgN/A
5:00 AM63 °FPassing clouds.5 mph94%30.12 "HgN/A
Weather by CustomWeather, © 2014

See weather overviewHow to use our weather pages